Location: Unspecified
(36.1222°N, 0.0000°E)
Time: 02:13:39
(UTC+00:00)

N. Korean satellite - Visible Passes

Search period start: 23 October 2019 00:00
Search period end: 02 November 2019 00:00
Orbit: 455 x 508 km, 97.2° (Epoch: 22 October)

Date Brightness Start Highest point End Pass type
(mag) Time Alt. Az. Time Alt. Az. Time Alt. Az.
23 Oct 9.5 05:09:41 10° NE 05:12:32 21° E 05:15:25 10° SSE visible
24 Oct 10.6 04:46:46 10° E 04:47:05 10° E 04:47:24 10° E visible
25 Oct 9.8 17:58:52 10° SW 18:01:19 18° W 18:03:48 10° NW visible
26 Oct 8.4 05:26:37 10° NNE 05:30:04 37° E 05:33:30 10° SSE visible
26 Oct 8.1 17:32:39 10° S 17:35:53 41° W 17:39:13 10° NNW visible
27 Oct 9.9 05:02:08 10° NE 05:04:39 17° E 05:07:11 10° SE visible
28 Oct 10.4 18:17:58 10° WSW 18:18:50 11° W 18:19:43 10° WNW visible
29 Oct 7.1 05:43:50 10° NNE 05:47:31 67° E 05:51:12 10° S visible
29 Oct 9.3 17:50:33 10° SSW 17:53:21 23° W 17:56:13 10° NW visible
30 Oct 8.9 05:18:53 10° NE 05:22:10 29° E 05:25:25 10° SSE visible
31 Oct 10.2 04:54:41 10° ENE 04:56:42 14° E 04:58:44 10° SE visible
01 Nov 10.0 18:08:58 10° SW 18:10:50 14° W 18:12:44 10° WNW visible
